Regional Weather Roundup
Issued by NWS Sterling, VA

Home | Current Version | Previous Version | Graphics & Text | Print | Product List | Glossary On
Versions: 1 2 3 4 5 6 7 8 9 10 11 12 13 14 15 16 17 18 19 20 21 22 23 24 25 26 27 28 29 30 31 32 33 34 35 36 37 38 39 40 41 42 43 44 45 46 47 48 49 50
443
ASUS41 KLWX 232211
RWRLWX

REGIONAL WEATHER ROUNDUP
NATIONAL WEATHER SERVICE BALTIMORE MD/WASHINGTON DC
500 PM EST THU NOV 23 2017

Note: "FAIR" indicates few or no clouds below 12,000 feet
with no significant weather and/or obstructions to visibility.
 TC=TEMPERATURE CELSIUS

 * =Non NWS site. Station does not report precipitation (e.g. rain,
    snow, etc.), thunder, or fog.

DCZ001-MDZ009-015-VAZ040>042-051-053>054-232300-
WASHINGTON METRO

CITY           SKY/WX    TMP DP  RH WIND       PRES   REMARKS
WASHINGTON NAT PTCLDY    43  21  41 W7        30.08S
DULLES         PTCLDY    38  24  57 CALM      30.07S
ANDREWS AFB    CLEAR     41  20  42 W3        30.06R
FT BELVOIR     CLEAR     42  22  45 CALM      30.07S
COLLEGE PARK*  CLEAR     41  20  42 CALM      30.07R
LEESBURG*      CLEAR     43  27  52 CALM      30.06S
MANASSAS*      CLEAR     41  23  48 SW3       30.07S
GAITHERSBURG*  CLEAR     38  21  50 W3        30.06S

$$

MDZ006>007-011-014-232300-
BALTIMORE METRO

CITY           SKY/WX    TMP DP  RH WIND       PRES   REMARKS
BWI AIRPORT    PTCLDY    38  23  55 W5        30.06S
MD SCIENCE CTR   N/A     44  22  41 MISG      30.06R
MARTIN STATE   PTCLDY    43  25  49 CALM      30.08S
FORT MEADE*    CLEAR     36  25  64 W3        30.09R

$$

MDZ012-015-019>023-232300-
MARYLAND EASTERN SHORE

CITY           SKY/WX    TMP DP  RH WIND       PRES   REMARKS
OCEAN CITY     CLEAR     37  26  64 CALM      30.09R
SALISBURY      CLEAR     38  26  62 NW6       30.08S
CAMBRIDGE*     CLEAR     37  27  65 CALM      30.08S
EASTON*        PTCLDY    39  25  56 CALM      30.11S

$$

MDZ017>025-232300-
SOUTHERN MARYLAND

CITY           SKY/WX    TMP DP  RH WIND       PRES   REMARKS
PATUXENT RIVER CLEAR     40  27  59 E6        30.07F
ST INIGOES     CLEAR     41  26  55 W5        30.08S
LEONARDTOWN*   CLEAR     39  25  56 W3        30.08S

$$

MDZ003>005-232300-
NORTH CENTRAL MARYLAND

CITY           SKY/WX    TMP DP  RH WIND       PRES   REMARKS
FREDERICK*     CLEAR     39  19  45 SW6       30.08F
HAGERSTOWN APT CLEAR     41  22  46 S5        30.03S
WESTMINSTER*   CLEAR     39  25  56 CALM      30.03F

$$

MDZ501>502-232300-
WESTERN MARYLAND

CITY           SKY/WX    TMP DP  RH WIND       PRES   REMARKS
OAKLAND*       CLEAR     32  18  55 W6        29.94S
CUMBERLAND*    CLEAR     41  23  48 SW3       30.07R

$$

VAZ025>031-232300-
SHENANDOAH VALLEY

CITY           SKY/WX    TMP DP  RH WIND       PRES   REMARKS
WINCHESTER*    CLEAR     37  23  56 SE3       30.04S
FRONT ROYAL*   CLEAR     41  23  48 CALM      30.03S
LURAY*         CLEAR     43  27  52 CALM      30.04R
NEW MARKET*    CLEAR     36  23  60 CALM      30.03R
STAUNTON*      CLEAR     41  24  49 CALM      30.05R
WAYNESBORO*    CLEAR     40  25  54 CALM      30.02R

$$

WVZ021-048>050-054>055-232300-
EASTERN WEST VIRGINIA PANHANDLE

CITY           SKY/WX    TMP DP  RH WIND       PRES   REMARKS
MARTINSBURG    CLEAR     41  19  41 CALM      30.03S
PETERSBURG*    CLEAR     37  24  58 NW3       30.02S

$$

VAZ036>039-050-232300-
CENTRAL FOOTHILLS

CITY           SKY/WX    TMP DP  RH WIND       PRES   REMARKS
CHARLOTTESVILL CLEAR     42  25  50 S6        30.06R
CULPEPER*      CLEAR     39  25  56 CALM      30.08S
ORANGE*        CLEAR     41  25  52 CALM      30.07R
GORDONSVILLE*  CLEAR     40  26  56 CALM      30.06S
WARRENTON*     NOT AVBL

$$

VAZ055>057-232300-
NORTH AND CENTRAL PIEDMONT

CITY           SKY/WX    TMP DP  RH WIND       PRES   REMARKS
FREDERICKSBRG* CLEAR     42  27  55 CALM      30.07S
STAFFORD*      CLEAR     40  22  47 CALM      30.11S

$$

NCZ024-NYZ072-PAZ021-071-VAZ022-071-232300-
OTHER REGIONAL OBSERVATIONS

CITY           SKY/WX    TMP DP  RH WIND       PRES   REMARKS
NEW YORK CITY  CLEAR     40  19  43 CALM      30.03S
PHILADELPHIA   PTCLDY    41  18  39 W7        30.05S
PITTSBURGH     CLOUDY    39  20  46 S5        30.00F
ROANOKE        CLEAR     45  25  45 SE5       30.05R
RICHMOND       CLOUDY    42  23  46 CALM      30.08S
RALEIGH        MOCLDY    45  30  55 CALM      30.06S

$$

ANZ530>537-232300-
MARINE OBSERVATIONS

STATION/POSITION TIME  TEMP    WIND        PRES
                       AIR SEA DIR/SP/G
                 (UTC) (F)     (DEG/KT/KT) (MB)
THOMAS PT LIGHT  2200   41 51  170/  6/  7   N/A
BALT KEY BRIDGE  2148   43     230/  6/  7 1018.0F
COVE POINT       2148   40     170/  5/  9 1018.9F
LEWISETTA        2148             CALM     1018.4F
SOLOMONS ISLAND  2148           90/  4/  5 1017.9F
PINEY POINT      2142          330/  6/  7   N/A

$$





USA.gov is the U.S. government's official web portal to all federal, state and local government web resources and services.